When you browse on this site, cookies collect data to enhance your experience and personalize the content and advertising you see.
Visit our Privacy Policy to learn more. By continuing to use the site, you agree to this use of cookies and data.
  • In Hungary
  • List of Countries
  • For 7 days
  • Water Temperature
  • Weather Map
  • News
  • Weather Widgets
  • user-avatar
    Login

    Hourly Weather Wilamowice

    Today, 14 November, Thursday

    Time Temperature Precipitation Wind Pressure Humidity
    00:00 +2°C° 0.5 mm 3 mps 734 mmHg 94%
    01:00 +3°C° 0 mm 2 mps 735 mmHg 93%
    02:00 +3°C° 0 mm 2 mps 735 mmHg 92%
    03:00 +3°C° 0 mm 2 mps 735 mmHg 91%
    04:00 +3°C° 0 mm 2 mps 735 mmHg 90%
    05:00 +2°C° 0 mm 2 mps 736 mmHg 89%
    06:00 +2°C° 0 mm 2 mps 736 mmHg 89%
    07:00 +3°C° 0 mm 1 mps 736 mmHg 89%
    08:00 +3°C° 0 mm 2 mps 737 mmHg 85%
    09:00 +4°C° 0 mm 2 mps 737 mmHg 81%
    10:00 +5°C° 0 mm 2 mps 737 mmHg 77%
    11:00 +6°C° 0 mm 2 mps 737 mmHg 74%
    12:00 +7°C° 0 mm 3 mps 737 mmHg 71%
    13:00 +7°C° 0 mm 3 mps 737 mmHg 68%
    14:00 +7°C° 0 mm 3 mps 737 mmHg 73%
    15:00 +5°C° 0 mm 3 mps 737 mmHg 78%
    16:00 +4°C° 0 mm 3 mps 737 mmHg 83%
    17:00 +3°C° 0 mm 3 mps 737 mmHg 86%
    18:00 +4°C° 0 mm 2 mps 737 mmHg 88%
    19:00 +3°C° 0 mm 2 mps 737 mmHg 90%
    20:00 +2°C° 0 mm 3 mps 737 mmHg 91%
    21:00 +2°C° 0 mm 3 mps 737 mmHg 92%
    22:00 +2°C° 0 mm 3 mps 736 mmHg 93%
    23:00 +2°C° 0 mm 3 mps 736 mmHg 93%

    Tomorrow, 15 November, Friday

    Time Temperature Precipitation Wind Pressure Humidity
    00:00 +3°C° 0 mm 3 mps 736 mmHg 93%
    01:00 +3°C° 0 mm 3 mps 736 mmHg 93%
    02:00 +3°C° 0 mm 3 mps 736 mmHg 92%
    03:00 +3°C° 0 mm 4 mps 735 mmHg 92%
    04:00 +3°C° 0 mm 4 mps 735 mmHg 91%
    05:00 +4°C° 0 mm 4 mps 735 mmHg 90%
    06:00 +4°C° 0 mm 4 mps 735 mmHg 88%
    07:00 +3°C° 0 mm 5 mps 735 mmHg 87%
    08:00 +6°C° 0 mm 5 mps 735 mmHg 84%
    09:00 +8°C° 0 mm 6 mps 735 mmHg 80%
    10:00 +10°C° 0 mm 7 mps 735 mmHg 77%
    11:00 +11°C° 0 mm 6 mps 735 mmHg 74%
    12:00 +13°C° 0 mm 6 mps 735 mmHg 71%
    13:00 +14°C° 0 mm 6 mps 735 mmHg 68%
    14:00 +13°C° 0 mm 6 mps 735 mmHg 71%
    15:00 +11°C° 0 mm 6 mps 734 mmHg 75%
    16:00 +10°C° 0 mm 6 mps 734 mmHg 78%
    17:00 +10°C° 0 mm 6 mps 734 mmHg 79%
    18:00 +9°C° 0 mm 6 mps 734 mmHg 80%
    19:00 +9°C° 0 mm 5 mps 734 mmHg 81%
    20:00 +9°C° 0 mm 5 mps 734 mmHg 80%
    21:00 +9°C° 0 mm 5 mps 734 mmHg 80%
    22:00 +9°C° 0 mm 5 mps 734 mmHg 80%
    23:00 +9°C° 0 mm 5 mps 734 mmHg 80%

    Day after tomorrow, 16 November, Saturday

    Time Temperature Precipitation Wind Pressure Humidity
    00:00 +9°C° 0 mm 5 mps 734 mmHg 80%
    01:00 +9°C° 0 mm 5 mps 734 mmHg 79%
    02:00 +9°C° 0 mm 5 mps 734 mmHg 79%
    03:00 +10°C° 0 mm 5 mps 734 mmHg 79%
    04:00 +10°C° 0 mm 5 mps 733 mmHg 79%
    05:00 +10°C° 0 mm 5 mps 734 mmHg 80%
    06:00 +10°C° 0 mm 5 mps 734 mmHg 81%
    07:00 +10°C° 0 mm 5 mps 734 mmHg 82%
    08:00 +11°C° 0 mm 4 mps 735 mmHg 79%
    09:00 +12°C° 0 mm 4 mps 735 mmHg 77%
    10:00 +12°C° 0 mm 4 mps 736 mmHg 75%
    11:00 +13°C° 0 mm 4 mps 736 mmHg 71%
    12:00 +13°C° 0 mm 4 mps 736 mmHg 68%
    13:00 +13°C° 0 mm 4 mps 737 mmHg 64%
    14:00 +12°C° 0 mm 4 mps 737 mmHg 69%
    15:00 +11°C° 0 mm 3 mps 737 mmHg 73%
    16:00 +10°C° 0 mm 2 mps 738 mmHg 78%
    17:00 +9°C° 0 mm 2 mps 738 mmHg 80%
    18:00 +9°C° 0 mm 1 mps 739 mmHg 82%
    19:00 +8°C° 0 mm 1 mps 740 mmHg 85%
    20:00 +8°C° 0 mm 1 mps 740 mmHg 85%
    21:00 +8°C° 0 mm 1 mps 741 mmHg 85%
    22:00 +8°C° 0 mm 1 mps 741 mmHg 85%
    23:00 +8°C° 0 mm 1 mps 741 mmHg 87%

    17 November, Sunday

    Time Temperature Precipitation Wind Pressure Humidity
    00:00 +8°C° 0 mm 1 mps 741 mmHg 88%
    01:00 +6°C° 0 mm 0 mps 741 mmHg 90%
    02:00 +6°C° 0 mm 0 mps 741 mmHg 90%
    03:00 +6°C° 0 mm 0 mps 741 mmHg 90%
    04:00 +6°C° 0 mm 0 mps 740 mmHg 90%
    05:00 +6°C° 0 mm 0 mps 740 mmHg 90%
    06:00 +7°C° 0 mm 1 mps 740 mmHg 90%
    07:00 +7°C° 0 mm 1 mps 740 mmHg 91%
    08:00 +8°C° 0 mm 1 mps 740 mmHg 88%
    09:00 +9°C° 0 mm 1 mps 740 mmHg 84%
    10:00 +9°C° 0 mm 2 mps 740 mmHg 81%
    11:00 +10°C° 0 mm 2 mps 739 mmHg 79%
    12:00 +12°C° 0 mm 2 mps 739 mmHg 76%
    13:00 +13°C° 0 mm 3 mps 739 mmHg 73%
    14:00 +12°C° 0 mm 3 mps 738 mmHg 75%
    15:00 +11°C° 0 mm 3 mps 738 mmHg 78%
    16:00 +10°C° 0 mm 3 mps 738 mmHg 81%
    17:00 +10°C° 0 mm 3 mps 738 mmHg 82%
    18:00 +10°C° 0 mm 3 mps 738 mmHg 83%
    19:00 +9°C° 0 mm 3 mps 737 mmHg 84%
    20:00 +9°C° 0 mm 3 mps 737 mmHg 84%
    21:00 +9°C° 0 mm 3 mps 737 mmHg 83%
    22:00 +9°C° 0 mm 3 mps 737 mmHg 83%
    23:00 +9°C° 0 mm 3 mps 736 mmHg 82%

    18 November, Monday

    Time Temperature Precipitation Wind Pressure Humidity
    00:00 +9°C° 0 mm 3 mps 736 mmHg 80%
    01:00 +9°C° 0 mm 3 mps 736 mmHg 79%
    02:00 +9°C° 0 mm 3 mps 735 mmHg 80%
    03:00 +9°C° 0 mm 3 mps 735 mmHg 81%
    04:00 +9°C° 0 mm 3 mps 734 mmHg 82%
    05:00 +9°C° 0 mm 3 mps 734 mmHg 81%
    06:00 +9°C° 0 mm 3 mps 734 mmHg 80%
    07:00 +9°C° 0 mm 3 mps 734 mmHg 79%
    08:00 +10°C° 0 mm 3 mps 734 mmHg 76%
    09:00 +11°C° 0 mm 3 mps 734 mmHg 73%
    10:00 +12°C° 0 mm 3 mps 734 mmHg 69%
    11:00 +12°C° 0 mm 3 mps 733 mmHg 69%
    12:00 +13°C° 0 mm 3 mps 733 mmHg 68%
    13:00 +14°C° 0 mm 3 mps 733 mmHg 67%
    14:00 +13°C° 0 mm 4 mps 733 mmHg 70%
    15:00 +12°C° 0 mm 5 mps 733 mmHg 73%
    16:00 +10°C° 0 mm 5 mps 733 mmHg 77%
    17:00 +10°C° 0 mm 4 mps 734 mmHg 78%
    18:00 +10°C° 0 mm 4 mps 734 mmHg 79%
    19:00 +9°C° 0 mm 3 mps 735 mmHg 80%
    20:00 +9°C° 0 mm 3 mps 735 mmHg 82%
    21:00 +8°C° 0 mm 2 mps 736 mmHg 84%
    22:00 +8°C° 0 mm 2 mps 736 mmHg 87%
    23:00 +7°C° 0 mm 2 mps 737 mmHg 85%

    19 November, Tuesday

    Time Temperature Precipitation Wind Pressure Humidity
    00:00 +7°C° 0 mm 2 mps 737 mmHg 84%
    01:00 +7°C° 0 mm 2 mps 737 mmHg 83%
    02:00 +6°C° 0 mm 2 mps 738 mmHg 85%
    03:00 +6°C° 0 mm 2 mps 738 mmHg 86%
    04:00 +6°C° 0 mm 2 mps 738 mmHg 87%
    05:00 +6°C° 0 mm 2 mps 738 mmHg 88%
    06:00 +5°C° 0 mm 2 mps 739 mmHg 89%
    07:00 +5°C° 0 mm 2 mps 739 mmHg 90%
    08:00 +6°C° 0 mm 2 mps 739 mmHg 85%
    09:00 +7°C° 0 mm 2 mps 740 mmHg 79%
    10:00 +8°C° 0 mm 2 mps 740 mmHg 74%
    11:00 +9°C° 0 mm 2 mps 740 mmHg 72%
    12:00 +9°C° 0 mm 2 mps 740 mmHg 69%
    13:00 +10°C° 0 mm 2 mps 739 mmHg 66%
    14:00 +10°C° 0.2 mm 1 mps 739 mmHg 71%
    15:00 +9°C° 0.2 mm 1 mps 739 mmHg 76%
    16:00 +9°C° 0.2 mm 1 mps 739 mmHg 80%
    17:00 +7°C° 0.5 mm 2 mps 740 mmHg 83%
    18:00 +5°C° 0.5 mm 3 mps 740 mmHg 85%
    19:00 +5°C° 0.5 mm 4 mps 740 mmHg 87%
    20:00 +5°C° 0.6 mm 3 mps 740 mmHg 87%
    21:00 +4°C° 0.6 mm 3 mps 740 mmHg 87%
    22:00 +5°C° 0.6 mm 2 mps 740 mmHg 87%
    23:00 +5°C° 0 mm 2 mps 741 mmHg 86%
    Show more